[[{"header":{"parameterUnit":"m.s-1","parameterCategory":1,"la1":30.2991,"la2":30.254,"lo1":-89.0895,"lo2":-89.0444,"dy":0.0017,"dx":0.0017,"nx":28,"ny":28,"refTime":"2026-01-07T09:00:00:Z","depth":0,"parameterNumber":2,"parameterNumberName":"U-component_of_WINDS"},"data":[0,0,0,0,0,0,0,0,0,0,0,0,0,0,0,0,0,0,0,0,0,0,0,0,0,0,0,0,0,0,0,0,0,0,0,0,0,0,0,0,0,0,0,0,0,0,0,0,0,0,0,0,0,0,0,0,0,0,-3.2285,-3.2285,0,-3.2314,-3.2315,-3.2315,-3.2283,-3.2282,-3.2281,-3.228,-3.2311,-3.2313,-3.2315,0,0,0,0,0,0,0,0,0,0,0,0,0,-3.2201,-3.2202,-3.2285,-3.2285,-3.2285,-3.2314,-3.2315,-3.2315,-3.2284,-3.2282,-3.2281,-3.2279,-3.2311,-3.2313,-3.2315,0,0,0,0,0,0,0,0,0,0,0,0,0,-3.2235,-3.2203,-3.2284,-3.2273,-3.2272,-3.2314,-3.2315,-3.2315,-3.2284,-3.2282,-3.228,-3.2278,-3.231,-3.2313,-3.2316,-3.2371,0,0,-3.2325,-3.2326,0,0,0,0,0,0,0,0,-3.2233,-3.2238,-3.2274,-3.2274,-3.2273,-3.2293,-3.2297,-3.2334,-3.2284,-3.2279,-3.228,-3.2278,-3.2307,-3.231,-3.232,-3.2372,-3.2374,-3.2325,-3.2327,-3.2328,-3.2329,0,0,0,0,0,0,0,-3.223,-3.2236,-3.2296,-3.2275,-3.2274,-3.2266,-3.2269,-3.2304,-3.2303,-3.228,-3.2278,-3.2281,-3.2306,-3.2317,-3.232,-3.2374,-3.2325,-3.2328,-3.2329,-3.2331,-3.2472,-3.2474,0,0,0,0,0,0,-3.2229,-3.2234,-3.2295,-3.2297,-3.2248,-3.2269,-3.2273,-3.2289,-3.2303,-3.2303,-3.2283,-3.228,-3.2313,-3.2317,-3.2321,-3.2385,-3.2328,-3.2331,-3.2333,-3.247,-3.2473,-3.2475,0,0,0,0,0,0,-3.2228,-3.2235,-3.2294,-3.2265,-3.2272,-3.2273,-3.2291,-3.229,-3.2301,-3.2305,-3.2305,-3.2294,-3.2311,-3.2317,-3.2358,-3.2386,-3.2332,-3.2335,-3.2468,-3.2471,-3.2474,-3.2515,0,0,0,0,0,0,-3.2225,-3.2235,-3.2255,-3.2266,-3.2274,-3.2331,-3.2293,-3.2292,-3.2306,-3.2302,-3.2315,-3.2316,-3.231,-3.2354,-3.2361,-3.2389,-3.2337,-3.2465,-3.2469,-3.2473,-3.2511,-3.2519,-3.2526,0,0,0,0,0,-3.2222,-3.2266,-3.2257,-3.2264,-3.23,-3.2333,-3.2337,-3.233,-3.2308,-3.2329,-3.2332,-3.2315,-3.2382,-3.2359,-3.2366,-3.2396,-3.2464,-3.2468,-3.2473,-3.2508,-3.2518,-3.2526,0,0,0,0,0,0,-3.226,-3.2268,-3.2257,-3.2306,-3.2319,-3.2327,-3.2353,-3.234,-3.236,-3.2356,-3.2346,-3.2349,-3.2393,-3.2399,-3.2372,-3.2449,-3.2419,-3.2426,-3.2444,-3.2453,-3.246,-3.2457,-3.234,0,0,0,0,0,-3.2274,-3.2299,-3.2305,-3.2347,-3.2354,-3.2353,-3.2367,-3.236,-3.2373,-3.2379,-3.2384,-3.2398,-3.2422,-3.2438,-3.246,-3.2512,-3.2514,-3.2536,-3.2544,-3.255,-3.2555,-3.2581,-3.2591,-3.2489,-3.2489,-3.2489,0,0,-3.2303,-3.231,-3.2327,-3.2355,-3.2364,-3.2391,-3.2358,-3.2387,-3.2407,-3.2383,-3.2422,-3.2427,-3.2442,-3.2488,-3.2509,-3.2494,-3.2583,-3.2555,-3.256,-3.2562,-3.2587,-3.2597,-3.2605,-3.2492,-3.2492,-3.2491,0,0,-3.2369,-3.2377,-3.2413,-3.2423,-3.2437,-3.2435,-3.2444,-3.2454,-3.2456,-3.2495,-3.2477,-3.2501,-3.2543,-3.2553,-3.2564,-3.2634,-3.2619,-3.2642,-3.2679,-3.2705,-3.2713,-3.272,-3.2744,-3.2753,-3.2647,-3.2647,-3.2647,0,-3.2403,-3.2442,-3.2433,-3.2464,-3.2476,-3.2455,-3.2491,-3.2501,-3.2522,-3.2531,-3.2514,-3.2566,-3.2574,-3.2622,-3.2639,-3.2649,-3.2658,-3.2639,-3.2713,-3.272,-3.2726,-3.2749,-3.2758,-3.265,-3.2649,-3.2649,-3.2649,0,-3.2483,-3.251,-3.2537,-3.2557,-3.2573,-3.2606,-3.2602,-3.2619,-3.2611,-3.2611,-3.2651,-3.266,-3.2683,-3.2695,-3.2687,-3.2742,-3.2732,-3.2714,-3.2684,-3.2739,-3.2759,-3.2768,-3.2653,-3.2652,-3.2652,-3.2651,0,0,-3.2573,-3.2587,-3.2597,-3.2605,-3.2619,-3.264,-3.2672,-3.2694,-3.2708,-3.2724,-3.275,-3.2785,-3.2769,-3.2781,-3.2775,-3.2798,-3.2851,-3.2778,-3.2778,-3.279,-3.291,-3.2922,-3.2932,-3.2842,-3.2843,-3.2845,-3.2908,0,-3.2638,-3.2693,-3.2686,-3.2738,-3.2763,-3.2743,-3.2771,-3.2782,-3.2784,-3.2805,-3.2806,-3.2831,-3.2808,-3.2815,-3.2837,-3.284,-3.2875,-3.2835,-3.2865,-3.2867,-3.2861,-3.2943,-3.2957,-3.3016,-3.2917,-3.2918,-3.2919,0,-3.2722,-3.2739,-3.2794,-3.2802,-3.2812,-3.2838,-3.2857,-3.2877,-3.289,-3.2889,-3.2903,-3.2892,-3.2924,-3.2894,-3.2937,-3.291,-3.2922,-3.2926,-3.2928,-3.2929,-3.2895,-3.2946,-3.3035,-3.3044,-3.2932,-3.2931,-3.293,0,-3.278,-3.2817,-3.2854,-3.2862,-3.2874,-3.2892,-3.2898,-3.2908,-3.2922,-3.2939,-3.2947,-3.2968,-3.2979,-3.2996,-3.2991,-3.297,-3.3035,-3.3005,-3.3035,-3.3035,-3.3049,-3.3048,-3.314,-3.3059,-3.3058,-3.3058,-3.3058,0,-3.2854,-3.2888,-3.2881,-3.2904,-3.2941,-3.2932,-3.297,-3.2973,-3.2982,-3.3005,-3.299,-3.3012,-3.3005,-3.3027,-3.3024,-3.3059,-3.3065,-3.3065,-3.3063,-3.3065,-3.3065,-3.3072,-3.3068,-3.3061,-3.306,-3.306,-3.3059,0,-3.2925,-3.2922,-3.2961,-3.2968,-3.2971,-3.2998,-3.3004,-3.3026,-3.3026,-3.3055,-3.3061,-3.3061,-3.3086,-3.3083,-3.3111,-3.3108,-3.3152,-3.3147,-3.3148,-3.3146,-3.3175,-3.3172,-3.3274,-3.3287,-3.3199,-3.32,-3.32,0,-3.2971,-3.2997,-3.3007,-3.302,-3.3027,-3.305,-3.3063,-3.3056,-3.307,-3.3086,-3.3105,-3.3128,-3.3146,-3.3186,-3.3189,-3.321,-3.3203,-3.3238,-3.3206,-3.3207,-3.3202,-3.32,-3.3202,-3.3244,-3.3245,-3.3245,-3.3246,0,-3.3054,-3.305,-3.307,-3.3089,-3.3105,-3.3119,-3.3132,-3.3145,-3.3138,-3.3155,-3.318,-3.3194,-3.3221,-3.3244,-3.3264,-3.327,-3.3257,-3.3256,-3.3264,-3.3266,-3.3265,-3.3264,-3.3163,-3.3253,-3.3253,-3.3252,-3.3252,-3.3252,-3.3113,-3.3134,-3.3144,-3.3166,-3.3175,-3.3187,-3.3207,-3.3209,-3.3229,-3.325,-3.3244,-3.3272,-3.3283,-3.3308,-3.3316,-3.3337,-3.3324,-3.3336,-3.3339,-3.3341,-3.3344,-3.3262,-3.3341,-3.3341,-3.334,-3.334,-3.334,0,-3.3193,-3.3198,-3.3218,-3.3236,-3.3254,-3.3239,-3.3253,-3.3268,-3.3292,-3.3303,-3.3321,-3.3348,-3.337,-3.3374,-3.3395,-3.3411,-3.3406,-3.3417,-3.3415,-3.3416,-3.3355,-3.3345,-3.3421,-3.3421,-3.3421,-3.3421,-3.3421,-3.3421,-3.3237,-3.3271,-3.3269,-3.3308,-3.3313,-3.3339,-3.3347,-3.3359,-3.3367,-3.3398,-3.3416,-3.3418,-3.3426,-3.3447,-3.3466,-3.3467,-3.3475,-3.3488,-3.3486,-3.3429,-3.3421,-3.3413,-3.3404,-3.349,-3.349,-3.3545,-3.3546,-3.3546]},{"header":{"parameterUnit":"m.s-1","parameterCategory":1,"la1":30.2991,"la2":30.254,"lo1":-89.0895,"lo2":-89.0444,"dy":0.0017,"dx":0.0017,"nx":28,"ny":28,"refTime":"2026-01-07T09:00:00:Z","depth":0,"parameterNumber":3,"parameterNumberName":"V-component_of_WINDS"},"data":[0,0,0,0,0,0,0,0,0,0,0,0,0,0,0,0,0,0,0,0,0,0,0,0,0,0,0,0,0,0,0,0,0,0,0,0,0,0,0,0,0,0,0,0,0,0,0,0,0,0,0,0,0,0,0,0,0,0,2.9524,2.9525,0,2.9585,2.9586,2.9587,2.9587,2.9586,2.9585,2.9585,2.9644,2.9647,2.9649,0,0,0,0,0,0,0,0,0,0,0,0,0,2.9408,2.941,2.9524,2.9525,2.9526,2.9585,2.9586,2.9587,2.9587,2.9586,2.9585,2.9584,2.9644,2.9646,2.9649,0,0,0,0,0,0,0,0,0,0,0,0,0,2.9463,2.9411,2.9524,2.9533,2.9535,2.9585,2.9586,2.9587,2.9587,2.9586,2.9585,2.9584,2.9643,2.9646,2.9649,2.9694,0,0,2.966,2.9662,0,0,0,0,0,0,0,0,2.946,2.9467,2.9531,2.9533,2.9534,2.9577,2.9567,2.9623,2.9587,2.9567,2.9585,2.9583,2.9623,2.9628,2.9642,2.9697,2.97,2.966,2.9663,2.9664,2.9665,0,0,0,0,0,0,0,2.9456,2.9464,2.9548,2.9532,2.9534,2.9534,2.9541,2.9578,2.9601,2.9569,2.9569,2.9576,2.9623,2.9638,2.9643,2.97,2.966,2.9663,2.9666,2.9667,2.9799,2.9801,0,0,0,0,0,0,2.9451,2.9461,2.9546,2.955,2.9494,2.9537,2.9544,2.9565,2.96,2.9605,2.9577,2.9576,2.9633,2.9639,2.9645,2.9703,2.9664,2.9667,2.9669,2.9798,2.9799,2.9801,0,0,0,0,0,0,2.9448,2.9458,2.9544,2.9506,2.9517,2.954,2.9563,2.9566,2.9581,2.9607,2.9611,2.9588,2.9632,2.964,2.9683,2.9705,2.9669,2.9672,2.9796,2.9798,2.98,2.9816,0,0,0,0,0,0,2.9445,2.9457,2.9474,2.9506,2.9519,2.9581,2.9564,2.9568,2.9588,2.9587,2.9618,2.9622,2.9632,2.9678,2.9687,2.9709,2.9675,2.9794,2.9797,2.98,2.9814,2.9819,2.9823,0,0,0,0,0,2.9441,2.9475,2.9475,2.9485,2.9541,2.9582,2.9589,2.9601,2.9589,2.9607,2.9624,2.9621,2.9701,2.9682,2.9692,2.9716,2.9793,2.9796,2.9799,2.9812,2.9818,2.9823,0,0,0,0,0,0,2.9443,2.9479,2.948,2.9526,2.9551,2.9582,2.9605,2.9606,2.9634,2.9632,2.9644,2.9651,2.9695,2.9709,2.9688,2.9763,2.9745,2.9751,2.9752,2.9758,2.9762,2.9758,2.9678,0,0,0,0,0,2.945,2.948,2.951,2.9548,2.9561,2.9581,2.9599,2.9606,2.9632,2.9642,2.9662,2.9687,2.9719,2.9738,2.9768,2.9816,2.9824,2.9837,2.9841,2.9845,2.985,2.9879,2.9887,2.9812,2.9812,2.9812,0,0,2.9462,2.9486,2.9504,2.9549,2.9569,2.9602,2.9589,2.9623,2.9648,2.9647,2.969,2.9705,2.9734,2.9781,2.9802,2.9794,2.9873,2.9849,2.9852,2.9855,2.9884,2.9891,2.9897,2.9814,2.9813,2.9813,0,0,2.9502,2.9522,2.9558,2.9579,2.9611,2.9625,2.9633,2.9665,2.9676,2.9719,2.972,2.9749,2.9801,2.9823,2.9841,2.9893,2.9893,2.9902,2.9926,2.9954,2.996,2.9966,2.9987,2.9994,2.9906,2.9906,2.9906,0,2.9514,2.9563,2.9575,2.9611,2.9631,2.9634,2.9671,2.9691,2.973,2.9744,2.9735,2.9804,2.9823,2.9876,2.9889,2.9902,2.9914,2.9899,2.9958,2.9964,2.9969,2.9989,2.9997,2.9908,2.9907,2.9907,2.9907,0,2.9577,2.9611,2.9636,2.9677,2.97,2.9735,2.9754,2.9775,2.9781,2.9796,2.9841,2.9865,2.9901,2.9914,2.9918,2.9968,2.9963,2.9956,2.9939,2.9977,2.9997,3.0004,2.9909,2.9909,2.9909,2.9908,0,0,2.962,2.9669,2.9678,2.9698,2.9735,2.9761,2.9798,2.9835,2.9855,2.9882,2.9914,2.996,2.9954,2.9975,2.9982,3.0007,3.005,2.9997,2.9998,3.0008,3.011,3.0117,3.0126,3.0049,3.0051,3.0052,3.0109,0,2.9666,2.9732,2.9746,2.9803,2.9836,2.9841,2.9873,2.9899,2.9914,2.9945,2.9961,2.9995,2.9983,2.9996,3.0021,3.0039,3.0071,3.0035,3.0081,3.0082,3.0076,3.0135,3.0142,3.0194,3.0116,3.0117,3.0118,0,2.9729,2.9761,2.9822,2.9857,2.9872,2.99,2.9937,2.9965,2.9996,3.0005,3.003,3.0035,3.0074,3.0055,3.011,3.0086,3.0105,3.0117,3.0119,3.0125,3.0104,3.0146,3.0211,3.022,3.013,3.0129,3.0128,0,2.9758,2.9815,2.986,2.9877,2.9918,2.9939,2.9957,2.9986,3.0009,3.004,3.0055,3.009,3.011,3.0137,3.0152,3.0136,3.0207,3.0189,3.0218,3.0218,3.0234,3.0233,3.0305,3.0242,3.0242,3.0242,3.0242,0,2.9809,2.9847,2.9874,2.9902,2.9946,2.9961,3.0003,3.0021,3.0048,3.008,3.0084,3.0114,3.0131,3.0164,3.0176,3.0221,3.0229,3.0239,3.0242,3.024,3.0239,3.0254,3.0252,3.0244,3.0244,3.0243,3.0243,0,2.9849,2.9868,2.9919,2.9955,2.9965,2.9996,3.0027,3.0054,3.007,3.0111,3.0121,3.0146,3.0185,3.0203,3.0249,3.0258,3.0311,3.031,3.0301,3.0303,3.0332,3.033,3.0419,3.0432,3.0358,3.0358,3.0359,0,2.9881,2.9911,2.9952,2.9974,2.9994,3.0029,3.0053,3.0069,3.0094,3.0133,3.0156,3.0196,3.0228,3.0291,3.0313,3.035,3.0351,3.038,3.0357,3.0355,3.0355,3.0354,3.0359,3.0385,3.0385,3.0386,3.0386,0,2.9938,2.9947,2.9982,3.0021,3.0049,3.008,3.011,3.0128,3.015,3.0177,3.0218,3.0243,3.0293,3.0333,3.0372,3.0391,3.0393,3.0394,3.0403,3.0402,3.0397,3.0403,3.0315,3.0392,3.0391,3.0391,3.039,3.039,2.9978,3.0006,3.004,3.0079,3.0104,3.0132,3.0162,3.0182,3.0217,3.026,3.0267,3.0311,3.0343,3.0396,3.0417,3.0452,3.0445,3.0458,3.0461,3.0465,3.0468,3.039,3.0459,3.0458,3.0458,3.0458,3.0458,0,3.0037,3.006,3.0096,3.0139,3.017,3.017,3.0205,3.0231,3.027,3.03,3.0333,3.0382,3.0421,3.0447,3.0487,3.0511,3.0513,3.0521,3.0521,3.0526,3.047,3.046,3.0519,3.0519,3.0519,3.0519,3.0519,3.0519,3.0072,3.0121,3.0134,3.0196,3.0218,3.0263,3.0283,3.031,3.0335,3.0389,3.0423,3.044,3.0469,3.0512,3.0549,3.0555,3.0571,3.058,3.0587,3.0535,3.0529,3.0523,3.0513,3.0583,3.0583,3.0639,3.064,3.064]}]]